Dewpoint
54 55 53 53 54 53 54 55 55 57 58 59 56 55 54 55 55 52 40 42 50 51 52 47 38 37 34 31 34 34 23 24 26 27 28 30 29 30 29 28 28 28 32 35 43
53 53 53 53 54 54 54 55 57 57 58 58 55 54 55 55 46 35 39 47 47 48 44 33 35 32 27 27 30 28 23 23 28 29 29 29 29 27 27 27 27 28 33 36 36
54 54 53 53 54 54 56 55 54 54 55 56 55 55 53 41 29 26 38 47 47 45 42 34 31 28 24 24 28 28 23 29 30 29 27 27 26 22 26 23 26 26 28 35 34
54 54 55 52 54 56 55 54 52 50 54 54 54 52 42 36 21 30 41 46 46 45 34 32 27 24 20 19 25 24 29 28 28 22 24 24 19 19 22 23 19 22 28 33 34
55 55 55 55 55 51 52 51 51 52 53 52 51 40 32 27 28 32 40 38 34 34 29 27 23 21 16 21 22 25 26 24 21 17 16 17 14 14 13 16 17 22 27 31 31
53 53 54 54 51 51 51 53 52 51 49 46 45 40 27 21 32 33 36 33 32 28 26 23 22 21 18 18 19 23 21 17 17 18 22 19 17 20 11 19 17 17 19 25 27
52 52 50 50 52 51 52 47 48 46 45 42 43 35 30 28 34 35 34 31 32 27 25 29 24 18 17 17 18 15 11 15 20 22 21 27 14 17 19 22 17 18 18 19 23
50 50 48 47 47 49 47 47 44 42 39 42 43 31 27 33 35 37 35 31 30 29 29 27 25 20 17 18 18 11 8 -2 19 25 25 22 3 14 21 25 24 22 19 19 20
51 50 47 44 45 44 43 44 43 41 40 41 32 24 22 33 34 37 36 28 30 32 36 36 29 25 21 9 6 10 -3 6 13 28 27 24 12 17 26 24 26 27 24 19 22
52 50 48 44 45 45 41 42 40 41 38 35 33 19 31 29 36 37 38 32 26 23 26 26 23 17 19 6 1 -1 1 11 11 23 26 22 18 23 23 27 27 28 28 24 27
52 51 49 45 45 45 41 38 27 31 36 34 33 32 35 37 37 36 38 28 24 29 18 25 12 11 25 24 21 17 15 14 15 29 23 20 19 19 24 26 27 27 28 28 32
51 49 47 45 44 44 41 36 38 36 28 33 34 35 37 38 25 34 35 21 22 21 24 14 18 29 30 25 21 19 14 11 19 27 21 20 17 20 25 26 28 29 31 33 34
51 51 44 42 42 39 40 40 42 39 23 22 32 33 35 35 33 34 33 31 26 22 20 13 26 30 25 22 18 24 19 21 20 25 23 21 5 19 26 25 27 29 32 33 34
50 50 47 45 35 38 37 44 43 36 14 17 26 31 34 34 27 36 37 30 28 22 25 25 29 28 25 24 20 9 29 26 24 16 -1 22 -8 7 25 24 25 26 28 30 31
49 49 45 37 36 34 41 45 41 30 5 15 26 32 33 24 24 28 35 31 26 29 16 22 27 26 25 27 26 23 30 28 27 25 22 19 10 9 24 22 22 26 29 31 32
48 46 43 41 41 43 45 43 33 10 4 19 27 27 25 29 30 31 28 33 32 26 29 29 32 31 29 32 31 31 26 24 27 26 4 20 19 7 23 22 22 28 31 31 31
46 45 41 43 36 44 42 31 7 5 16 18 25 26 26 24 25 22 22 22 19 5 10 26 29 33 32 28 31 24 14 -1 -6 2 1 25 22 15 19 25 25 28 30 30 23
45 44 41 41 44 43 31 16 -1 14 17 25 26 23 22 23 25 25 23 17 22 22 19 6 4 29 32 29 26 24 12 -2 -16 -21 -3 18 13 11 22 27 29 30 30 27 23
43 41 35 39 43 40 24 9 12 17 23 24 23 15 18 22 22 23 23 22 24 22 8 12 12 31 32 33 29 24 16 19 9 16 12 5 10 15 20 28 30 29 27 22 22
37 34 34 40 42 30 20 21 24 28 30 26 16 20 13 19 17 19 21 26 24 25 23 17 3 27 32 32 32 27 25 15 14 -11 -12 -1 4 4 21 26 29 29 23 20 22
36 24 31 41 35 27 17 24 27 30 31 24 21 18 19 17 18 14 18 26 28 24 23 17 6 12 27 25 22 28 25 23 19 14 -2 -8 -9 14 20 26 28 28 23 21 24
30 28 36 34 21 29 27 29 30 28 27 27 25 22 18 17 15 14 16 22 29 26 20 23 11 1 11 26 27 25 21 20 5 -0 15 8 1 15 21 27 26 26 21 23 27
33 33 36 28 12 24 28 28 30 26 26 24 23 24 22 17 11 16 21 27 30 26 22 20 8 -6 -2 17 23 24 27 22 19 19 14 4 -4 11 25 26 23 20 21 25 27
31 26 31 29 28 25 23 25 24 29 27 26 24 23 19 17 19 14 19 25 30 29 29 22 13 4 -14 -3 19 17 19 26 21 19 15 13 8 11 17 24 22 22 21 26 27
33 30 30 27 29 23 23 24 21 20 27 27 21 21 17 11 15 13 18 25 28 32 29 23 11 15 14 15 15 15 15 18 23 23 16 10 11 12 13 15 22 24 21 25 27
33 32 34 33 31 26 23 20 20 21 21 20 18 21 23 14 12 10 16 19 16 30 27 28 16 23 22 24 23 23 23 21 18 22 24 23 21 21 21 20 18 21 22 25 27
38 38 35 34 30 29 27 24 21 23 24 25 24 23 21 21 22 23 20 21 20 25 25 26 22 24 23 24 24 22 23 24 24 22 21 21 22 23 22 21 21 20 21 25 28
Wind_Speed
3 2 8 10 6 7 9 7 3 2 7 14 13 8 4 4 3 3 5 3 2 7 7 5 3 2 2 3 3 2 4 7 7 9 4 3 4 1 1 2 1 1 2 1 4
6 2 5 5 11 10 11 11 15 14 11 6 10 8 5 3 2 6 4 5 2 2 3 2 6 5 3 2 3 3 4 7 4 4 4 3 2 1 1 2 3 3 1 3 11
7 6 6 9 7 12 19 19 21 18 12 5 7 6 7 6 4 4 4 7 4 2 1 1 2 2 3 2 3 3 2 4 2 2 2 2 1 1 1 4 6 4 3 6 10
18 16 25 15 12 11 15 15 16 21 11 6 2 6 6 5 5 3 11 8 2 2 1 2 3 4 4 5 2 6 4 2 3 3 1 0 3 2 4 4 2 2 2 8 11
22 18 14 15 14 10 14 14 13 19 12 5 5 4 4 5 5 7 17 6 5 5 3 4 4 5 7 5 4 6 4 5 4 5 3 3 4 5 8 9 10 5 3 9 10
18 17 15 9 12 10 6 12 14 18 8 6 8 5 3 2 4 10 13 2 6 3 3 2 5 5 9 4 4 4 7 6 4 3 2 4 3 5 1 7 4 8 10 7 10
13 14 13 11 8 9 4 10 9 9 7 6 2 5 7 2 5 14 7 2 2 3 4 2 2 3 5 8 4 8 5 3 7 4 2 2 2 5 3 6 6 4 3 7 10
12 11 8 8 5 5 7 6 7 7 9 4 3 3 5 2 6 9 4 6 6 7 8 5 7 10 5 7 6 4 4 2 3 8 4 3 6 1 2 11 15 14 10 5 3
10 9 7 6 6 4 4 6 4 6 4 2 2 4 5 6 3 8 5 6 5 5 7 6 6 6 4 6 4 6 3 2 1 6 5 3 6 3 9 18 19 13 12 6 4
14 11 7 5 7 7 1 2 4 6 4 2 3 7 4 2 6 8 4 5 7 5 4 8 7 5 5 4 5 4 3 1 3 6 6 9 22 13 17 12 13 13 8 8 6
10 8 5 5 8 9 2 3 3 7 11 6 3 5 2 6 3 6 5 3 5 11 4 5 7 5 5 4 4 6 3 1 2 3 8 4 18 19 15 5 7 9 2 2 6
14 10 6 8 8 6 5 5 2 2 12 10 4 4 2 2 3 17 7 4 6 7 2 5 6 1 1 6 7 6 2 3 6 3 6 9 25 10 4 3 4 5 7 6 7
13 11 7 8 7 7 10 5 2 2 6 6 4 4 3 5 5 11 7 4 8 7 8 7 3 1 4 7 4 5 3 1 3 11 2 13 8 1 1 3 5 7 3 4 6
14 13 9 5 3 1 4 4 3 1 6 12 8 5 4 2 6 3 5 4 6 9 7 8 1 3 6 5 3 0 2 2 4 8 6 7 10 4 2 2 3 3 4 4 4
13 12 8 5 6 4 1 5 3 1 5 9 5 4 5 7 3 10 5 8 7 6 2 1 3 4 5 2 2 2 2 3 2 2 4 2 4 5 1 7 7 4 4 4 4
12 14 1 5 5 2 4 2 2 2 4 4 5 4 3 8 4 2 5 10 4 7 13 5 2 3 3 4 5 7 3 5 4 1 5 2 1 7 6 6 7 6 6 6 6
9 10 7 2 2 5 2 2 2 6 2 2 3 4 5 6 5 5 5 7 4 3 2 3 3 2 2 3 3 3 2 5 4 1 5 1 3 15 7 5 7 14 10 7 6
6 7 6 5 3 2 3 3 7 0 0 1 1 4 4 4 4 4 4 4 6 5 4 4 2 1 2 1 2 2 2 4 5 3 5 1 9 6 5 5 6 10 10 8 8
2 4 3 7 4 2 4 7 3 2 0 2 2 4 4 3 3 4 4 2 1 2 2 4 2 1 2 1 1 2 3 2 3 1 3 5 8 13 9 5 6 10 10 9 8
2 2 5 9 1 4 7 5 2 2 2 1 2 2 2 2 3 3 1 0 2 2 1 3 1 0 1 2 4 1 8 2 1 4 6 6 9 13 11 16 13 12 13 10 7
3 2 3 6 3 11 7 4 2 2 3 4 2 3 3 2 3 2 3 1 1 2 3 3 1 0 1 5 7 4 3 2 2 4 4 6 7 6 7 18 20 18 16 13 10
2 4 4 3 7 5 4 2 1 3 5 4 3 4 2 1 2 2 2 1 1 3 2 1 3 5 3 2 2 2 3 7 4 4 2 0 14 4 7 10 16 17 13 10 6
3 4 4 3 5 5 2 3 3 3 4 3 3 5 4 3 3 2 2 3 2 2 2 4 1 3 1 1 1 4 6 5 4 2 8 5 9 4 3 5 9 13 13 10 6
4 5 7 9 3 6 3 3 2 1 2 2 2 2 3 2 3 1 1 0 2 2 4 2 2 6 6 1 2 5 6 11 10 6 7 18 19 9 4 9 13 14 11 11 6
7 3 1 7 11 7 2 2 2 3 3 2 1 1 2 2 2 3 3 3 1 4 3 3 4 3 10 13 10 15 15 13 23 23 15 18 18 19 9 13 19 20 8 11 8
4 3 2 2 3 6 8 4 2 0 2 1 0 1 2 3 3 2 4 4 4 3 5 2 3 2 7 3 5 14 20 24 23 19 23 29 35 32 24 14 15 17 14 14 11
4 3 0 2 2 3 3 5 5 5 2 2 2 1 4 6 5 3 5 1 1 4 9 4 3 0 6 4 11 15 18 17 9 10 14 18 20 14 10 10 10 11 15 17 13
Wind_Direction
26 102 171 128 78 220 186 173 182 156 193 180 142 151 154 148 73 275 230 233 273 306 325 293 280 154 69 89 57 107 91 152 167 163 166 147 153 80 320 147 232 174 174 283 157
31 165 153 140 183 182 154 121 98 87 73 88 116 126 130 115 78 255 251 314 340 337 324 166 162 144 86 74 40 66 125 168 158 148 150 123 127 3 23 330 244 230 111 94 144
56 65 76 69 88 140 133 124 114 102 107 80 94 131 131 81 35 228 289 336 7 92 211 314 154 121 97 58 31 76 109 147 109 76 69 137 139 326 171 273 237 243 235 151 161
47 88 103 103 109 108 135 142 119 109 95 90 142 155 119 82 169 299 319 322 358 107 123 174 163 116 117 139 57 104 69 52 109 30 42 194 322 293 208 222 23 205 209 175 184
54 72 82 111 118 111 126 121 111 110 108 136 242 196 149 52 270 303 316 324 98 129 139 186 157 128 134 121 98 95 128 68 69 47 39 342 303 288 272 282 278 243 175 194 204
59 75 85 91 103 117 142 133 124 98 137 178 231 201 101 357 310 305 298 90 78 121 98 16 185 145 105 84 73 101 105 105 57 36 43 343 303 347 262 339 0 212 240 229 221
33 41 60 72 112 146 124 108 107 130 172 199 239 199 82 218 317 309 297 95 74 103 105 38 117 70 129 111 136 117 95 92 31 358 355 335 280 222 308 343 354 332 291 245 236
17 25 61 85 94 137 143 162 146 169 181 172 203 194 82 288 311 305 322 70 67 70 95 95 82 93 55 119 46 80 71 166 9 359 344 5 265 192 63 355 308 288 275 262 254
19 16 21 81 108 117 144 178 179 190 177 137 170 93 99 334 339 312 354 92 84 70 61 69 67 75 61 103 80 23 187 202 317 38 326 22 277 225 313 328 310 303 278 243 257
4 3 2 1 15 36 164 205 15 139 62 143 78 84 24 345 302 320 333 69 91 86 59 45 52 82 49 57 203 204 188 232 255 344 343 294 277 288 309 315 315 313 291 241 280
10 357 343 337 355 11 38 23 24 32 36 65 74 83 55 313 316 353 352 67 61 57 85 26 85 92 74 58 92 110 105 317 319 8 333 293 292 303 311 331 355 4 32 97 83
2 11 25 26 20 9 64 78 102 142 70 44 63 72 55 332 32 7 3 92 72 96 17 63 94 143 47 66 81 62 72 332 295 348 338 321 301 312 334 15 6 47 84 92 111
4 1 7 4 3 42 80 86 317 249 84 25 17 38 343 30 49 355 15 76 86 69 57 107 138 305 103 66 74 50 65 9 289 323 39 334 301 330 161 88 65 56 65 89 105
3 6 351 327 55 5 56 317 317 349 96 357 356 24 357 67 55 334 13 84 54 108 90 83 359 106 92 79 37 202 53 60 2 360 298 13 291 273 232 178 92 71 83 89 94
5 9 22 60 133 65 299 314 324 84 87 334 347 311 6 81 141 17 11 40 90 99 140 115 77 81 82 70 19 139 72 60 60 36 328 352 256 264 293 216 204 171 149 129 113
6 11 100 21 57 53 311 332 26 55 82 8 322 3 56 28 42 333 49 56 116 73 54 91 60 53 97 67 74 134 77 46 54 65 266 352 207 282 200 211 186 188 188 163 140
8 27 54 55 71 330 341 56 29 69 305 19 37 22 77 29 45 39 42 48 73 123 75 53 25 26 76 108 59 85 48 309 294 318 255 344 263 252 243 234 213 189 186 178 147
9 42 43 67 358 24 49 56 69 162 176 310 20 57 79 19 42 39 81 82 41 69 112 170 265 71 16 88 145 101 167 196 263 279 297 337 246 258 226 280 241 183 181 176 169
35 17 39 355 19 70 81 51 103 154 73 117 73 62 47 37 99 68 53 84 53 44 123 152 215 82 72 94 141 161 178 139 108 69 292 249 278 280 241 216 177 183 185 195 184
78 40 355 338 25 80 71 93 67 311 339 330 101 50 119 36 63 61 80 348 97 50 56 170 199 173 142 136 46 143 152 127 81 257 263 274 274 250 207 206 205 203 209 207 195
67 85 330 358 49 54 83 81 69 350 11 27 103 101 107 132 121 134 152 165 143 126 77 126 119 131 24 204 186 149 196 123 128 185 239 288 265 226 247 211 203 209 213 201 189
32 51 347 88 40 54 65 70 357 22 21 28 64 55 89 134 128 146 157 143 112 145 102 82 130 240 215 130 169 190 206 175 209 223 227 248 278 333 286 230 207 213 211 202 186
60 330 348 70 66 56 108 87 78 52 40 51 68 50 31 37 358 28 47 16 38 93 156 176 194 289 277 109 84 226 204 183 125 121 218 221 257 338 334 198 216 226 221 202 165
30 18 3 50 40 102 82 34 96 64 94 74 125 109 108 91 63 136 171 51 39 86 93 110 183 222 245 190 144 237 222 206 195 215 214 231 268 271 294 231 229 238 228 207 187
39 73 87 7 14 31 57 100 57 18 23 14 86 143 158 170 186 200 178 171 149 149 129 151 254 221 270 265 255 252 248 218 215 220 223 266 247 273 265 263 249 242 229 199 191
87 106 75 81 7 5 6 7 2 297 168 356 321 346 227 233 221 236 181 212 210 175 176 173 252 208 285 244 233 267 253 238 232 240 247 262 277 282 281 266 254 242 209 199 204
18 7 132 0 51 72 21 347 345 344 324 317 219 164 239 248 235 243 212 334 307 184 192 176 195 186 273 324 311 282 255 207 204 213 215 238 251 264 275 279 276 249 202 198 198